Regional Weather Roundup
Issued by NWS

Home | Current Version | Previous Version | Graphics & Text | Print | Product List | Glossary On
Versions: 1 2 3 4 5 6 7 8 9 10 11 12 13 14 15 16 17 18 19 20 21 22 23 24 25 26 27 28 29 30 31 32 33 34 35 36 37 38 39 40 41 42 43 44 45 46 47 48 49 50
000
ASUS43 KFSD 241310
RWRSD

WEATHER ROUNDUP FOR SOUTH DAKOTA
NATIONAL WEATHER SERVICE SIOUX FALLS SD
700 AM CST MON NOV 24 2014

NOTE: "FAIR" INDICATES FEW OR NO CLOUDS BELOW 12,000 FEET WITH NO
SIGNIFICANT WEATHER AND/OR OBSTRUCTIONS TO VISIBILITY.


SDZ001>005-009-010-012>017-241400-
NORTHWEST AND NORTH CENTRAL SOUTH DAKOTA

CITY           SKY/WX    TMP DP  RH WIND       PRES   REMARKS
BUFFALO          N/A     17  12  80 NW5       29.72R WCI  10
FAITH            N/A     16  12  84 NW17      29.78R WCI   0
MOBRIDGE       MOCLDY    18  13  80 NW10      29.75R WCI   6
$$

SDZ012>016-024>037-041>051-057-063-072>074-241400-
SOUTHWEST AND SOUTH CENTRAL SOUTH DAKOTA

CITY           SKY/WX    TMP DP  RH WIND       PRES   REMARKS
RAPID CTY ARPT PTCLDY    24  17  74 N8        29.76R WCI  15
PIERRE         CLEAR     19  14  81 NW21      29.76R WCI   3
CUSTER         MOCLDY    25  15  66 NW8       29.70R WCI  16
ELLSWORTH AFB  PTCLDY    24  18  78 N5        29.76R WCI  18
PHILIP         CLEAR    N/A N/A N/A NW13      29.80R
PINE RIDGE     PTCLDY    20  16  84 W5        29.79R WCI  13
SPEARFISH      CLOUDY    32  23  69 W16       29.79R WCI  21
WINNER         FAIR      21  15  78 NW17      29.75R WCI   7
$$

SDZ004>011-016>023-039-040-241400-
NORTHEAST SOUTH DAKOTA

CITY           SKY/WX    TMP DP  RH WIND       PRES   REMARKS
ABERDEEN       CLOUDY    18  11  74 N20G28    29.70R WCI   2
WATERTOWN      FLURRIES  15   9  76 NW25G36   29.58R WCI  -4
SISSETON         N/A     13   7  77 N28G33    29.62R WCI  -8
$$

SDZ017-020-022-023-036>040-048>070-241400-
SOUTHEAST SOUTH DAKOTA

CITY           SKY/WX    TMP DP  RH WIND       PRES   REMARKS
SIOUX FALLS    FLURRIES  19  12  74 NW23G35   29.59R WCI   2
HURON          FLURRIES  19  13  77 NW28G38   29.68R WCI   1
CHAMBERLAIN    CLOUDY    21  15  78 NW25G31   29.73R WCI   4
MITCHELL       MIX PCPN  22  14  71 NW30G39   29.69R WCI   4
YANKTON        CLOUDY    23  14  68 NW26G32   29.66R WCI   6
$$

ABBREVIATIONS USED IN REMARKS
   TC - TEMPERATURE IN CELSIUS
  WCI - WIND CHILL INDEX
   HX - HEAT INDEX
  VSB - VISIBILITY



USA.gov is the U.S. government's official web portal to all federal, state and local government web resources and services.